星链-5205 (STARLINK-5205 )

导读 | 豆包AI

STARLINK-5205是美国SpaceX星链网络的卫星,于2022年10月28日发射升空,属于星链低轨互联网星座组网卫星。它运行在近地轨道,主要承担全球宽带互联网接入服务的组网任务,助力星链完成覆盖全球的卫星互联网部署,为各类终端提供全天候无盲区的网络连接能力。

基本信息
目录编号:
54202
目录名称:
STARLINK-5205
国际标识:
2022-141AX
轨道中心:
EARTH
卫星名称:
星链-5205
卫星全名:
星链-5205 (STARLINK-5205 )
卫星状态:
在轨 (已飞行1234 天)
发射日期:
2022-10-28 UTC
国别 :
美国 (US)
星等 :
--
轨道信息
数据来源 国际轨道数据
星历时间: 2026-03-15T06:21:23+0800
14小时前
查看轨道信息
半长轴: 6917.894km
偏心率: 0.0001141
轨道倾角: 53.218°
近地点辐角 82.372°
升交点赤经 330.275°
平近点角 277.740°
近地点: 538.967km
远地点: 540.547km
周期: 95.438分钟
每日圈数: 15.088356
详细信息
固有亮度:
5
最大亮度:
2.5
卫星平台:
Starlink v1.5
覆盖范围:
全球
运营商:
太空探索技术公司
运营商所在国:
美国
制造商(研发单位):
太空探索技术公司
制造商所在国:
美国
使用方式:
暂无
卫星简介
星链(Starlink)计划是由太空探索技术公司(SpaceX)提出的一个巨型低轨卫星互联网星座项目,计划在2019年至2024年间在太空搭建由约1.2万颗卫星组成的“星链”网络,其中1584颗将部署在地球上空550千米处的近地轨道,并从2020年开始工作。该卫星仍在工作。
2D轨道图
3D轨道图
轨道高度分析图
轨道倾角分析图
轨道综合分析图
查看轨道综合分析图